Weather History for Unalakleet, AK

Change the Weather History Date:

Monday, March 25, 2013

  Actual Average Record
Temperature  
Mean Temperature -14 °F -  
Max Temperature -2 °F 21 °F 45 °F (1987)
Min Temperature -27 °F 2 °F -27 °F (2013)
Degree Days  
Heating Degree Days 80    
Moisture  
Dew Point -16 °F    
Average Humidity 68    
Maximum Humidity 100    
Minimum Humidity 29    
Precipitation  
Precipitation 0.00 in - - ()
Sea Level Pressure  
Sea Level Pressure 30.01 in    
Wind  
Wind Speed 6 mph (NW)    
Max Wind Speed 13 mph    
Max Gust Speed -    
Visibility 10 miles    
Events      
Averages and records for this station are not official NWS values.
T = Trace of Precipitation, MM = Missing Value Source: NWS Daily Summary

Daily Weather History Graph

Daily Weather History Graph

Search for Another Location

Airport:

Trip Planner

Search our weather history database for the weather conditions in past years. The results will help you decide how hot, cold, wet, or windy it might be!

Date:

Astronomy

Mar. 25, 2013 Rise Set
Actual Time 8:24 AM AKDT 9:15 PM AKDT
Civil Twilight 7:36 AM AKDT 10:03 PM AKDT
Nautical Twilight 6:36 AM AKDT 11:03 PM AKDT
Astronomical Twilight 5:26 AM AKDT 12:15 AM AKDT
Moon 7:46 PM AKDT (3/25) 7:38 AM AKDT (3/25)
Length of Visible Light 14h 26m
Length of Day
12h 50m
Waxing Gibbous, 97% of the Moon is Illuminated
Mar 25
Waxing Gibbous
Mar 27
Full
Apr 2
Last Quarter
Apr 10
New
Apr 18
First Quarter

Hourly Weather History & Observations

Time (AKDT) Temp. Windchill Dew Point Humidity Pressure Visibility Wind Dir Wind Speed Gust Speed Precip Events Conditions
12:16 AM -11.2 °F - -18.4 °F 70% 30.01 in 10.0 mi Calm Calm - N/A   Clear
12:36 AM -11.2 °F -20.6 °F -14.8 °F 84% 30.01 in 10.0 mi NNW 3.5 mph - N/A   Scattered Clouds
12:56 AM -9.4 °F -20.9 °F -16.6 °F 71% 30.01 in 10.0 mi North 4.6 mph - N/A   Partly Cloudy
1:16 AM -9.4 °F -28.9 °F -18.4 °F 65% 30.01 in 10.0 mi North 11.5 mph - N/A   Clear
1:36 AM -11.2 °F -32.1 °F -18.4 °F 70% 30.01 in 10.0 mi North 12.7 mph - N/A   Clear
1:56 AM -11.2 °F -29.0 °F -13.0 °F 92% 30.01 in 10.0 mi NNW 9.2 mph - N/A   Clear
2:16 AM -11.2 °F -31.1 °F -18.4 °F 70% 30.01 in 10.0 mi NNW 11.5 mph - N/A   Scattered Clouds
2:36 AM -11.2 °F -31.1 °F -23.8 °F 54% 30.01 in 10.0 mi North 11.5 mph - N/A   Scattered Clouds
2:56 AM -11.2 °F -27.8 °F -11.2 °F 100% 30.02 in 10.0 mi North 8.1 mph - N/A   Mostly Cloudy
3:16 AM -11.2 °F -26.4 °F -27.4 °F 45% 30.01 in 10.0 mi NNW 6.9 mph - N/A   Overcast
3:36 AM -11.2 °F -27.8 °F -18.4 °F 70% 30.01 in 10.0 mi NNW 8.1 mph - N/A   Partly Cloudy
3:56 AM -11.2 °F -24.8 °F -14.8 °F 84% 30.01 in 10.0 mi NNW 5.8 mph - N/A   Partly Cloudy
4:36 AM -13.0 °F -28.6 °F -16.6 °F 84% 30.01 in 10.0 mi NNW 6.9 mph - N/A   Partly Cloudy
4:56 AM -13.0 °F -25.1 °F -18.4 °F 77% 30.01 in 10.0 mi North 4.6 mph - N/A   Clear
5:16 AM -16.6 °F - -29.2 °F 53% 30.01 in 10.0 mi Calm Calm - N/A   Clear
5:36 AM -20.2 °F - - N/A% 30.01 in 10.0 mi Calm Calm - N/A   Clear
5:56 AM -22.0 °F - -27.4 °F 76% 30.01 in 10.0 mi Calm Calm - N/A   Clear
6:16 AM -14.8 °F -29.1 °F - N/A% 30.01 in 10.0 mi NNW 5.8 mph - N/A   Clear
6:36 AM -20.2 °F - - N/A% 30.01 in 10.0 mi Calm Calm - N/A   Clear
6:56 AM -20.2 °F - - N/A% 30.00 in 10.0 mi Calm Calm - N/A   Clear
7:16 AM -23.8 °F - - N/A% 30.00 in 10.0 mi Calm Calm - N/A   Clear
7:36 AM -25.6 °F - - N/A% 30.01 in 10.0 mi Calm Calm - N/A   Clear
7:56 AM -25.6 °F - - N/A% 30.01 in 10.0 mi Calm Calm - N/A   Clear
8:16 AM -27.4 °F - - N/A% 30.01 in 10.0 mi Calm Calm - N/A   Clear
8:36 AM -27.4 °F - - N/A% 30.01 in 10.0 mi Calm Calm - N/A   Clear
8:56 AM -18.4 °F - - N/A% 30.01 in 10.0 mi Calm Calm - N/A   Clear
9:16 AM -25.6 °F - - N/A% 30.01 in 10.0 mi Calm Calm - N/A   Clear
9:36 AM -23.8 °F - - N/A% 30.01 in 10.0 mi Calm Calm - N/A   Clear
9:56 AM -23.8 °F - - N/A% 30.01 in 10.0 mi Calm Calm - N/A   Clear
10:16 AM -23.8 °F - - N/A% 30.01 in 10.0 mi Calm Calm - N/A   Clear
10:36 AM -23.8 °F - - N/A% 30.01 in 10.0 mi Calm Calm - N/A   Clear
10:56 AM -23.8 °F - - N/A% 30.01 in 10.0 mi Calm Calm - N/A   Clear
11:16 AM -18.4 °F - - N/A% 30.01 in 10.0 mi Calm Calm - N/A   Clear
11:36 AM -13.0 °F -30.0 °F -14.8 °F 92% 30.01 in 10.0 mi NNW 8.1 mph - N/A   Clear
11:56 AM -9.4 °F -25.6 °F - N/A% 30.01 in 10.0 mi North 8.1 mph - N/A   Clear
12:16 PM -9.4 °F -26.8 °F - N/A% 30.01 in 10.0 mi NNW 9.2 mph - N/A   Clear
12:36 PM -9.4 °F -27.9 °F -27.4 °F 41% 30.01 in 10.0 mi NNW 10.4 mph - N/A   Clear
12:56 PM -7.6 °F -24.6 °F -20.2 °F 54% 30.01 in 10.0 mi NNW 9.2 mph - N/A   Clear
1:16 PM -7.6 °F -25.7 °F -14.8 °F 71% 30.01 in 10.0 mi NNW 10.4 mph - N/A   Clear
1:36 PM -7.6 °F -26.6 °F -18.4 °F 59% 30.01 in 10.0 mi NNW 11.5 mph - N/A   Clear
1:56 PM -7.6 °F -25.7 °F -14.8 °F 71% 30.01 in 10.0 mi NW 10.4 mph - N/A   Clear
2:16 PM -7.6 °F -25.7 °F -14.8 °F 71% 30.01 in 10.0 mi NNW 10.4 mph - N/A   Clear
2:36 PM -5.8 °F -21.2 °F -18.4 °F 55% 30.01 in 10.0 mi NW 8.1 mph - N/A   Scattered Clouds
2:56 PM -5.8 °F -22.4 °F -11.2 °F 77% 30.01 in 10.0 mi NW 9.2 mph - N/A   Scattered Clouds
3:16 PM -5.8 °F -22.4 °F -18.4 °F 55% 30.00 in 10.0 mi NW 9.2 mph - N/A   Scattered Clouds
3:36 PM -5.8 °F -25.2 °F -14.8 °F 65% 30.00 in 10.0 mi NW 12.7 mph - N/A   Mostly Cloudy
3:56 PM -5.8 °F -23.4 °F -14.8 °F 65% 30.00 in 7.0 mi NW 10.4 mph - N/A   Overcast
4:16 PM -5.8 °F -23.4 °F -23.8 °F 42% 30.01 in 3.0 mi NW 10.4 mph - N/A   Overcast
4:36 PM -4.0 °F -21.2 °F - N/A% 30.01 in 4.0 mi NW 10.4 mph - N/A   Overcast
4:56 PM -4.0 °F -21.2 °F -29.2 °F 29% 30.01 in 7.0 mi NW 10.4 mph - N/A   Overcast
5:16 PM -4.0 °F -22.1 °F -20.2 °F 46% 30.01 in 10.0 mi NW 11.5 mph - N/A   Mostly Cloudy
5:36 PM -4.0 °F -22.1 °F -5.8 °F 92% 30.01 in 10.0 mi NW 11.5 mph - N/A   Clear
5:56 PM -4.0 °F -21.2 °F -16.6 °F 55% 30.01 in 10.0 mi NNW 10.4 mph - N/A   Clear
6:16 PM -4.0 °F -19.0 °F -11.2 °F 71% 30.01 in 10.0 mi NW 8.1 mph - N/A   Clear
6:36 PM -4.0 °F -16.3 °F -11.2 °F 71% 30.01 in 10.0 mi WNW 5.8 mph - N/A   Partly Cloudy
6:56 PM -4.0 °F -19.0 °F -9.4 °F 78% 30.01 in 5.0 mi WNW 8.1 mph - N/A   Mostly Cloudy
7:16 PM -2.2 °F -19.9 °F -9.4 °F 71% 30.01 in 10.0 mi West 11.5 mph - N/A   Overcast
7:36 PM -2.2 °F -18.0 °F -13.0 °F 60% 30.01 in 10.0 mi West 9.2 mph - N/A   Mostly Cloudy
7:56 PM -2.2 °F -19.9 °F -11.2 °F 66% 30.01 in 10.0 mi West 11.5 mph - N/A   Mostly Cloudy
8:16 PM -2.2 °F -18.0 °F -13.0 °F 60% 30.01 in 10.0 mi West 9.2 mph - N/A   Overcast
8:36 PM -2.2 °F -18.9 °F -11.2 °F 66% 30.01 in 9.0 mi West 10.4 mph - N/A   Overcast
8:56 PM -2.2 °F -19.9 °F -11.2 °F 66% 30.01 in 10.0 mi West 11.5 mph - N/A   Overcast
9:16 PM -4.0 °F -22.1 °F -13.0 °F 65% 30.01 in 9.0 mi West 11.5 mph - N/A   Overcast
9:36 PM -4.0 °F -20.2 °F -9.4 °F 78% 30.01 in 8.0 mi West 9.2 mph - N/A   Mostly Cloudy
9:56 PM -4.0 °F -20.2 °F -11.2 °F 71% 30.01 in 10.0 mi West 9.2 mph - N/A   Partly Cloudy
10:16 PM -4.0 °F -22.1 °F -11.2 °F 71% 30.01 in 10.0 mi West 11.5 mph - N/A   Clear
10:36 PM -4.0 °F -21.2 °F -11.2 °F 71% 30.01 in 10.0 mi West 10.4 mph - N/A   Clear
10:56 PM -4.0 °F -20.2 °F -11.2 °F 71% 30.01 in 10.0 mi West 9.2 mph - N/A   Clear
11:16 PM -4.0 °F -21.2 °F -9.4 °F 78% 30.01 in 10.0 mi West 10.4 mph - N/A   Clear
11:36 PM -4.0 °F -21.2 °F -13.0 °F 65% 30.01 in 10.0 mi West 10.4 mph - N/A   Mostly Cloudy
11:56 PM -4.0 °F -21.2 °F -9.4 °F 78% 30.01 in 9.0 mi West 10.4 mph - N/A   Mostly Cloudy